Volver al catálogo

OPS 0856

ActivoMilitarPO
NORAD 2403·PAYLOAD·🇺🇸 United States

Lanzado Aug 19, 1966 desde Vandenberg Space Force Base

Loading…

Próximos Pases (próximas 24 horas)

TLE

ActualizadoSource: Space-Track

Época: Sep 14, 2026, 11:27 UTC

1 02403U 66077A   26257.47742238 -.00000017  00000-0 -92095-2 0  9991
2 02403  90.3281 277.4731 0006131 357.8598   2.2226  8.59841246534138

Sigue OPS 0856 en tiempo real con AllMySat

Download on the App Store